STARLINK-11564, 62913

Orbit data source: Space-Track

STARLINK-11564, 62913 is a payload satellite owned by SpaceX/Seattle (US) in LEO that was launched on Sat, 08 Feb 2025 UTC via an FALCON 9 launch vehicle from the Air Force Eastern Test Range (AFETR). Payload-class satellites include a variety of spacecraft equipped with specific instruments for various scientific and technological missions. These include communications satellites like Starlink; space stations such as the ISS; scientific satellites like the Hubble; Earth observation satellites from companies like Planet Labs, Umbra, and HawkEye 360; GPS; miniature CubeSats for education and research; and military/defense satellites.

Loading next visibility...
Identifier
62913, 2025-027G
Orbit
LEO
Country
Flag of USUS
Related business
Manufacturer
SpaceX/Seattle
Mission
Operational Commercial Communications
Bus & Motor
STARLINK V2MD, Unknown motor
Mass
960 kg wet, ~910 kg dry
Launch date (UTC)
2025-02-08 (10 months ago)
Launch vehicle
FALCON 9
Launch site
Air Force Eastern Test Range (AFETR)
Object type
Payload
Rocket body
Debris
Shape & HBR
Box + 2 Pan, 18.1 m
Radar Cross Section
36.964 m², Large (>1 m²)

Expand to show TLE details & history
Last TLE update: 21 hours ago

TLE from 21 hours ago
0 STARLINK-11564
1 62913U 25027G   25347.17590048  .00444966  00000-0  32602-2 0  9990
2 62913  42.9999 149.3305 0001761 336.1894  23.8892 15.71049675 49548
Epoch: 2025-12-13T04:13Z
TLE epoch observation values (Epoch: 2025-12-13T04:13:17.801Z)
Latitude
-0.00002°
Longitude
3.89938°
Altitude
354.583 km
Speed
7.699 km/s
True Right ascension
09h 57m 19s
True Declination
0° 00' 00"
Sunlit
Object was in full shadow at epoch
Visualization orbit readout
Latitude
Unknown
Longitude
Unknown
Altitude
Unknown
Speed
Unknown
Apparent Right ascension
Unknown
Apparent Declination
Unknown
Sunlit
N/A
Visualization observer readout
Local Sidereal Time
23:55:12
Azimuth
Unknown
Elevation
Unknown
Doppler factor
Unknown
Orbital elements
Apogee altitude
359.064 km
Perigee altitude
356.691 km
Semi-major axis
6,736.015 km
Eccentricity
0.00018
Inclination
42.9999°
RAAN
149.3305°
Arg. of periapsis
336.1894°
True anomaly
23.89737°
Mean anomaly
23.8892°
Eccentric anomaly
23.89329°
Mean motion
3.92589 °/min
Orbital period
91.7 mins
BSTAR
0.0032602
Loading maneuver chart data...
Computing Atmospheric mass density...
Loading historical data...
Loading historical data...
Loading historical data...
Loading historical data...
Loading historical data...
Loading historical data...
Loading historical data...

Documentation

Showing up to 5 results
|